Location: ???????
(55.4362°N, 38.1183°E)
Time: 12:23:46
(UTC+00:00)

deb Delta 139 - Pass Details

Date: 29 January 2022
Orbit: 790 x 1093 km, 98.7° (Epoch: 23 May)

Event Time Altitude Azimuth Distance (km) Brightness Sun altitude
Rises 02:01:05 0° 24° (NNE) 3,690 ? -28.8°
Reaches altitude 10° 02:04:29 10° 43° (NE) 2,793 ? -28.3°
Maximum altitude 02:08:36 18° 84° (E) 2,326 ? -27.7°
Drops below altitude 10° 02:12:49 10° 124° (SE) 2,890 ? -27.1°
Sets 02:16:24 0° 143° (SE) 3,871 ? -26.6°
